Time,TemperatureF,DewpointF,PressureIn,WindDirection,WindDirectionDegrees,WindSpeedMPH,WindSpeedGustMPH,Humidity,HourlyPrecipIn,Conditions,Clouds,dailyrainin,SoftwareType,DateUTC
2013-08-17 00:00:00,61.0,60.0,-100.00,NE,43,0.0,0.0,97,0.00,,,-99.99,,2013-08-17 04:00:00,
2013-08-17 00:44:00,61.0,60.0,-100.00,NE,43,0.0,0.0,97,0.00,,,-99.99,,2013-08-17 04:44:00,
2013-08-17 00:53:00,61.0,60.0,-100.00,NE,43,0.0,0.0,97,0.00,,,-99.99,,2013-08-17 04:53:00,
2013-08-17 01:00:00,60.0,59.0,-100.00,NE,43,0.0,0.0,98,0.00,,,-99.99,,2013-08-17 05:00:00,
2013-08-17 01:42:00,60.0,59.0,-100.00,NE,43,0.0,0.0,98,0.00,,,-99.99,,2013-08-17 05:42:00,
2013-08-17 01:52:00,60.0,59.0,-100.00,NE,43,0.0,0.0,98,0.00,,,-99.99,,2013-08-17 05:52:00,
2013-08-17 02:00:00,59.0,59.0,-100.00,NE,43,0.0,0.0,98,0.00,,,-99.99,,2013-08-17 06:00:00,
2013-08-17 02:42:00,59.0,59.0,-100.00,NE,43,0.0,0.0,98,0.00,,,-99.99,,2013-08-17 06:42:00,
2013-08-17 02:52:00,59.0,59.0,-100.00,NE,43,0.0,0.0,98,0.00,,,-99.99,,2013-08-17 06:52:00,
2013-08-17 03:00:00,59.0,59.0,-100.00,North,10,0.0,2.0,98,0.00,,,-99.99,,2013-08-17 07:00:00,
2013-08-17 03:42:00,59.0,59.0,-100.00,North,10,0.0,2.0,98,0.00,,,-99.99,,2013-08-17 07:42:00,
2013-08-17 03:52:00,59.0,59.0,-100.00,North,10,0.0,2.0,98,0.00,,,-99.99,,2013-08-17 07:52:00,
2013-08-17 04:00:00,61.0,60.0,-100.00,NNE,20,0.0,4.0,95,0.00,,,-99.99,,2013-08-17 08:00:00,
2013-08-17 04:42:00,61.0,60.0,-100.00,NNE,20,0.0,4.0,95,0.00,,,-99.99,,2013-08-17 08:42:00,
2013-08-17 04:52:00,61.0,60.0,-100.00,NNE,20,0.0,4.0,95,0.00,,,-99.99,,2013-08-17 08:52:00,
2013-08-17 05:00:00,62.0,58.0,-100.00,NE,47,3.0,5.0,86,0.00,,,-99.99,,2013-08-17 09:00:00,
2013-08-17 05:43:00,62.0,58.0,-100.00,NE,47,3.0,5.0,86,0.00,,,-99.99,,2013-08-17 09:43:00,
2013-08-17 05:53:00,62.0,58.0,-100.00,NE,47,3.0,5.0,86,0.00,,,-99.99,,2013-08-17 09:53:00,
2013-08-17 06:00:00,62.0,57.0,-100.00,NNE,26,2.0,5.0,84,0.00,,,-99.99,,2013-08-17 10:00:00,
2013-08-17 06:42:00,62.0,57.0,-100.00,NNE,26,2.0,5.0,84,0.00,,,-99.99,,2013-08-17 10:42:00,
2013-08-17 06:53:00,62.0,57.0,-100.00,NNE,26,2.0,5.0,84,0.00,,,-99.99,,2013-08-17 10:53:00,
2013-08-17 07:00:00,62.0,58.0,-100.00,NE,51,1.0,5.0,85,0.00,,,-99.99,,2013-08-17 11:00:00,
2013-08-17 07:42:00,62.0,58.0,-100.00,NE,51,1.0,5.0,85,0.00,,,-99.99,,2013-08-17 11:42:00,
2013-08-17 07:52:00,62.0,58.0,-100.00,NE,51,1.0,5.0,85,0.00,,,-99.99,,2013-08-17 11:52:00,
2013-08-17 08:00:00,65.0,59.0,-100.00,East,88,4.0,5.0,80,0.00,,,-99.99,,2013-08-17 12:00:00,
2013-08-17 08:42:00,65.0,59.0,-100.00,East,88,4.0,5.0,80,0.00,,,-99.99,,2013-08-17 12:42:00,
2013-08-17 08:52:00,65.0,59.0,-100.00,East,88,4.0,5.0,80,0.00,,,-99.99,,2013-08-17 12:52:00,
2013-08-17 09:00:00,69.0,60.0,-100.00,NE,37,5.0,8.0,73,0.00,,,-99.99,,2013-08-17 13:00:00,
2013-08-17 09:42:00,69.0,60.0,-100.00,NE,37,5.0,8.0,73,0.00,,,-99.99,,2013-08-17 13:42:00,
2013-08-17 09:52:00,69.0,60.0,-100.00,NE,37,5.0,8.0,73,0.00,,,-99.99,,2013-08-17 13:52:00,
2013-08-17 10:00:00,72.0,61.0,-100.00,ENE,67,10.0,13.0,68,0.00,,,-99.99,,2013-08-17 14:00:00,
2013-08-17 10:42:00,72.0,61.0,-100.00,ENE,67,10.0,13.0,68,0.00,,,-99.99,,2013-08-17 14:42:00,
2013-08-17 10:52:00,72.0,61.0,-100.00,ENE,67,10.0,13.0,68,0.00,,,-99.99,,2013-08-17 14:52:00,
2013-08-17 11:00:00,74.0,63.0,-100.00,East,86,5.0,16.0,68,0.00,,,-99.99,,2013-08-17 15:00:00,
2013-08-17 11:44:00,74.0,63.0,-100.00,East,86,5.0,16.0,68,0.00,,,-99.99,,2013-08-17 15:44:00,
2013-08-17 11:54:00,74.0,63.0,-100.00,East,86,5.0,16.0,68,0.00,,,-99.99,,2013-08-17 15:54:00,
2013-08-17 12:00:00,75.0,62.0,-100.00,East,100,12.0,17.0,65,0.00,,,-99.99,,2013-08-17 16:00:00,
2013-08-17 12:42:00,75.0,62.0,-100.00,East,100,12.0,17.0,65,0.00,,,-99.99,,2013-08-17 16:42:00,
2013-08-17 12:53:00,75.0,62.0,-100.00,East,100,12.0,17.0,65,0.00,,,-99.99,,2013-08-17 16:53:00,
2013-08-17 13:00:00,75.0,64.0,-100.00,East,95,11.0,18.0,68,0.00,,,-99.99,,2013-08-17 17:00:00,
2013-08-17 13:42:00,75.0,64.0,-100.00,East,95,11.0,18.0,68,0.00,,,-99.99,,2013-08-17 17:42:00,
2013-08-17 13:52:00,75.0,64.0,-100.00,East,95,11.0,18.0,68,0.00,,,-99.99,,2013-08-17 17:52:00,
2013-08-17 14:00:00,76.0,65.0,-100.00,East,82,8.0,19.0,68,0.00,,,-99.99,,2013-08-17 18:00:00,
2013-08-17 14:42:00,76.0,65.0,-100.00,East,82,8.0,19.0,68,0.00,,,-99.99,,2013-08-17 18:42:00,
2013-08-17 14:52:00,76.0,65.0,-100.00,East,82,8.0,19.0,68,0.00,,,-99.99,,2013-08-17 18:52:00,
2013-08-17 15:00:00,75.0,64.0,-100.00,East,82,12.0,16.0,68,0.00,,,-99.99,,2013-08-17 19:00:00,
2013-08-17 15:42:00,75.0,64.0,-100.00,East,82,12.0,16.0,68,0.00,,,-99.99,,2013-08-17 19:42:00,
2013-08-17 15:52:00,75.0,64.0,-100.00,East,82,12.0,16.0,68,0.00,,,-99.99,,2013-08-17 19:52:00,
2013-08-17 16:00:00,75.0,65.0,-100.00,East,85,10.0,17.0,71,0.00,,,-99.99,,2013-08-17 20:00:00,
2013-08-17 16:42:00,75.0,65.0,-100.00,East,85,10.0,17.0,71,0.00,,,-99.99,,2013-08-17 20:42:00,
2013-08-17 16:52:00,75.0,65.0,-100.00,East,85,10.0,17.0,71,0.00,,,-99.99,,2013-08-17 20:52:00,
2013-08-17 17:00:00,74.0,66.0,-100.00,ESE,112,5.0,16.0,75,0.00,,,-99.99,,2013-08-17 21:00:00,
2013-08-17 17:42:00,74.0,66.0,-100.00,ESE,112,5.0,16.0,75,0.00,,,-99.99,,2013-08-17 21:42:00,
2013-08-17 17:54:00,74.0,66.0,-100.00,ESE,112,5.0,16.0,75,0.00,,,-99.99,,2013-08-17 21:54:00,
2013-08-17 18:00:00,75.0,64.0,-100.00,ESE,115,5.0,14.0,70,0.00,,,-99.99,,2013-08-17 22:00:00,
2013-08-17 18:42:00,75.0,64.0,-100.00,ESE,115,5.0,14.0,70,0.00,,,-99.99,,2013-08-17 22:42:00,
2013-08-17 18:52:00,75.0,64.0,-100.00,ESE,115,5.0,14.0,70,0.00,,,-99.99,,2013-08-17 22:52:00,
2013-08-17 19:00:00,73.0,62.0,-100.00,East,85,5.0,12.0,71,0.00,,,-99.99,,2013-08-17 23:00:00,
2013-08-17 19:42:00,73.0,62.0,-100.00,East,85,5.0,12.0,71,0.00,,,-99.99,,2013-08-17 23:42:00,
2013-08-17 19:52:00,73.0,62.0,-100.00,East,85,5.0,12.0,71,0.00,,,-99.99,,2013-08-17 23:52:00,
2013-08-17 20:00:00,72.0,61.0,-100.00,East,96,4.0,11.0,70,0.00,,,-99.99,,2013-08-18 00:00:00,
2013-08-17 20:42:00,72.0,61.0,-100.00,East,96,4.0,11.0,70,0.00,,,-99.99,,2013-08-18 00:42:00,
2013-08-17 20:52:00,72.0,61.0,-100.00,East,96,4.0,11.0,70,0.00,,,-99.99,,2013-08-18 00:52:00,
2013-08-17 21:00:00,71.0,62.0,-100.00,ENE,72,5.0,8.0,73,0.00,,,-99.99,,2013-08-18 01:00:00,
2013-08-17 21:42:00,71.0,62.0,-100.00,ENE,72,5.0,8.0,73,0.00,,,-99.99,,2013-08-18 01:42:00,
2013-08-17 21:52:00,71.0,62.0,-100.00,ENE,72,5.0,8.0,73,0.00,,,-99.99,,2013-08-18 01:52:00,
2013-08-17 22:00:00,71.0,63.0,-100.00,East,95,4.0,8.0,74,0.00,,,-99.99,,2013-08-18 02:00:00,
2013-08-17 22:42:00,71.0,63.0,-100.00,East,95,4.0,8.0,74,0.00,,,-99.99,,2013-08-18 02:42:00,
2013-08-17 22:52:00,71.0,63.0,-100.00,East,95,4.0,8.0,74,0.00,,,-99.99,,2013-08-18 02:52:00,
2013-08-17 23:00:00,-999.0,-99.9,-100.00,ESE,121,4.0,10.0,-999,0.00,,,-99.99,,2013-08-18 03:00:00,
2013-08-17 23:43:00,71.0,63.0,-100.00,ESE,121,4.0,10.0,76,0.00,,,-99.99,,2013-08-18 03:43:00,
2013-08-17 23:53:00,71.0,63.0,-100.00,ESE,121,4.0,10.0,76,0.00,,,-99.99,,2013-08-18 03:53:00,